< < Back
Terminal Aerodrome Forecast


Current Version              Previous Versions:   1  2  3  4  5  6  7  8  9  

Terminal Aerodrome Forecast

570
FTUS42 KFFC 192300
TAFFTY
TAF
KFTY 192333Z 2000/2024 04010KT P6SM -DZ VCSH SCT015 OVC035
     FM200700 05007KT P6SM OVC015
     FM201100 05010KT P6SM BKN045
     FM202000 06007KT P6SM SCT060=

Latest METAR

810
SAUS70 KWBC 201600 RRC
MTRFTY
METAR KFTY 201553Z 03008G18KT 10SM CLR 19/04 A3024 RMK AO2 SLP234
T01890039


USA.gov is the U.S. government's official web portal to all federal, state and local government web resources and services.